Weather History for La Paz, Mexico

Change the Weather History Date:

Monday, November 5, 2012

  Actual Average Record
Temperature  
Mean Temperature 78 °F -  
Max Temperature 89 °F 82 °F 95 °F (2008)
Min Temperature 67 °F 59 °F 53 °F (2004)
Cooling Degree Days 13    
Growing Degree Days 28 (Base 50)    
Moisture  
Dew Point 64 °F    
Average Humidity 62    
Maximum Humidity 92    
Minimum Humidity 32    
Precipitation  
Precipitation 0.00 in - - ()
Sea Level Pressure  
Sea Level Pressure 29.97 in    
Wind  
Wind Speed 4 mph ()    
Max Wind Speed 15 mph    
Max Gust Speed -    
Visibility 9.7 miles    
Events      
Averages and records for this station are not official NWS values.
T = Trace of Precipitation, MM = Missing Value Source: Averaged Metar Reports

Daily Weather History Graph

Daily Weather History Graph

Search for Another Location

Airport:

Trip Planner

Search our weather history database for the weather conditions in past years. The results will help you decide how hot, cold, wet, or windy it might be!

Date:

Astronomy

Nov. 05, 2012 Rise Set
Actual Time 6:30 AM MST 5:39 PM MST
Civil Twilight 6:06 AM MST 6:02 PM MST
Nautical Twilight 5:39 AM MST 6:29 PM MST
Astronomical Twilight 5:13 AM MST 6:56 PM MST
Moon 11:18 PM MST (11/5) 11:50 AM MST (11/5)
Length of Visible Light 11h 56m
Length of Day
11h 08m
Waning Gibbous, 62% of the Moon is Illuminated
Nov 5
Waning Gibbous
Nov 6
Last Quarter
Nov 13
New
Nov 20
First Quarter
Nov 28
Full

Hourly Weather History & Observations

Time (MST) Temp. Heat Index Dew Point Humidity Pressure Visibility Wind Dir Wind Speed Gust Speed Precip Events Conditions
1:50 AM 74 °F - 71 °F 87% 29.95 in 2 mi Calm Calm - -  
4:50 AM 75 °F - 68 °F 74% 29.97 in 2 mi Calm Calm - -  
6:14 AM 60.8 °F - 57.2 °F 88% 29.97 in 10.0 mi Calm Calm - N/A   Partly Cloudy
6:41 AM 60.8 °F - 57.2 °F 88% 29.98 in 10.0 mi South 4.6 mph - N/A   Partly Cloudy
7:40 AM 74 °F - 72 °F 92% 30.01 in 16 mi Calm Calm - -   Clear
7:46 AM 66.2 °F - 60.8 °F 83% 30.05 in 10.0 mi Calm Calm - N/A   Scattered Clouds
8:40 AM 75.2 °F - 66.2 °F 73% 30.01 in 10.0 mi Calm Calm - N/A   Scattered Clouds
9:42 AM 82.4 °F 84.6 °F 66.2 °F 58% 30.00 in 10.0 mi North 11.5 mph - N/A   Scattered Clouds
10:40 AM 84.2 °F 85.6 °F 64.4 °F 51% 30.04 in 10.0 mi NW 11.5 mph - N/A   Partly Cloudy
10:50 AM 86 °F - 68 °F 45% 29.99 in 19 mi NNW 6.7 mph - -   Clear
11:53 AM 84.2 °F 85.6 °F 64.4 °F 51% 29.96 in 10.0 mi NNW 11.5 mph - N/A   Scattered Clouds
12:40 PM 86.0 °F 87.3 °F 64.4 °F 48% 29.94 in 10.0 mi NNW 11.5 mph - N/A   Scattered Clouds
1:41 PM 86.0 °F 86.6 °F 62.6 °F 45% 29.96 in 10.0 mi NNW 15.0 mph - N/A   Scattered Clouds
1:50 PM 89 °F - 63 °F 32% 29.91 in 19 mi North 8.9 mph - -   Clear
2:42 PM 84.2 °F 85.0 °F 62.6 °F 48% 29.90 in 10.0 mi North 10.4 mph - N/A   Scattered Clouds
3:41 PM 86.0 °F 86.1 °F 60.8 °F 43% 29.90 in 10.0 mi North 13.8 mph - N/A   Scattered Clouds
4:46 PM 84.2 °F 84.4 °F 60.8 °F 45% 30.01 in 10.0 mi North 9.2 mph - N/A   Mostly Cloudy
4:50 PM 84 °F - 67 °F 47% 29.91 in 19 mi North 6.7 mph - -   Clear
5:41 PM 80.6 °F 81.8 °F 62.6 °F 54% 29.91 in 10.0 mi NE 9.2 mph - N/A   Mostly Cloudy
6:44 PM 78.8 °F - 64.4 °F 61% 29.93 in 10.0 mi NNE 5.8 mph - N/A   Mostly Cloudy
7:41 PM 77.0 °F - 64.4 °F 65% 30.04 in 10.0 mi NE 5.8 mph - N/A   Scattered Clouds
7:50 PM 80 °F - 66 °F 54% 29.94 in 2 mi North 2.2 mph - -  
8:46 PM 75.2 °F - 64.4 °F 69% 29.96 in 10.0 mi Calm Calm - N/A   Partly Cloudy
9:49 PM 73.4 °F - 62.6 °F 69% 29.96 in 10.0 mi Calm Calm - N/A   Partly Cloudy
10:43 PM 71.6 °F - 62.6 °F 73% 30.06 in 10.0 mi Calm Calm - N/A   Clear
10:45 PM 80 °F - 70 °F 65% 29.91 in 2 mi North 4.5 mph - -  
10:50 PM 78 °F - 66 °F 58% 29.94 in 2 mi Calm Calm - -